{"data":{"norad_id":59928,"epoch":"2026-09-21T03:20:11.913792Z","epoch_age_seconds":119259,"freshness":"FRESH","line1":"1 59928U 24106G   26264.13902678 -.00002789  00000+0 -91984-4 0  9994","line2":"2 59928  43.0038 308.7840 0002154 290.1555  69.9065 15.27534366130463","mean_motion":15.27534366,"eccentricity":0.0002154,"inclination_deg":43.0038,"raan_deg":308.784,"arg_perigee_deg":290.1555,"mean_anomaly_deg":69.9065,"bstar":-9.1984e-5,"rev_number":13046,"period_min":94.269564865554,"perigee_km":481.70781513512,"apogee_km":484.66367297326,"semimajor_km":6861.3227440542,"source":"CELESTRAK","updated_at":"2026-09-22T09:00:49.111869Z"}}